Location: Il Ritiro
(43.4167°N, 13.1333°E)
Time: 08:03:45
(UTC+00:00)

Cosmos 1743 Rocket - Pass Details

Date: 05 July 2020
Orbit: 605 x 631 km, 82.6° (Epoch: 05 August)

Event Time Altitude Azimuth Distance (km) Brightness Sun altitude
Exits shadow 23:12:35 63° 88° (E) 680 3.6 -23.9°
Drops below altitude 10° 23:16:48 10° 15° (NNE) 1,969 7.2 -23.9°
Sets 23:19:02 0° 12° (NNE) 2,881 8.4 -23.9°
